User: anonymous   Login
Location: Unspecified
(0.0000°N, 0.0000°E)
Time: 12:45:51
(UTC+00:00)
Language:

MERIDIAN 3 - Orbit

View from above orbital plane
View from above orbital plane
View from above satellite
View from above satellite

Ground track
Ground track

The orbit data is extracted from the following two-line orbital elements,

1 37212U 10058A   17087.43693035 +.00000148 +00000-0 +10000-3 0  9992
2 37212 063.1481 084.0994 6919979 274.1624 304.8858 02.00613350046893
Epoch (UTC): 28 March 2017 10:29:10
Eccentricity: 0.6919979
inclination: 63.1481°
perigee height: 1801 km
apogee height: 38554 km
right ascension of ascending node: 84.0994°
argument of perigee: 274.1624°
revolutions per day: 2.00613350
mean anomaly at epoch: 304.8858°
orbit number at epoch: 4689

The dashed part of the orbit path shows where the satellite is in the earth's shadow,  

DLR